This is the latest recevied weather packets stored in our database for station/object KD2VWU. If no packets are shown the sender has not sent any weather packets the latest 10 day(s).
| Time | Temp. | Humidity | Pressure | Rain* | Wind** | Luminosity | Snow |
|---|---|---|---|---|---|---|---|
| 1777909272 | 18.89° C | 38% | 1008.6 hPa | 0 mm | - | - | - |
| 1777908970 | 18.33° C | 41% | 1008.6 hPa | 0 mm | - | - | - |
| 1777908668 | 18.33° C | 41% | 1008.7 hPa | 0 mm | - | - | - |
| 1777908365 | 17.78° C | 41% | 1008.7 hPa | 0 mm | - | - | - |
| 1777908061 | 17.78° C | 42% | 1008.8 hPa | 0 mm | - | - | - |
| 1777907756 | 17.78° C | 44% | 1009 hPa | 0 mm | - | - | - |
| 1777907451 | 17.22° C | 43% | 1008.9 hPa | 0 mm | - | - | - |
| 1777907149 | 17.22° C | 40% | 1009.2 hPa | 0 mm | - | - | - |
| 1777906846 | 17.22° C | 42% | 1009.1 hPa | 0 mm | - | - | - |
| 1777906543 | 16.67° C | 41% | 1009.4 hPa | 0 mm | - | - | - |
| 1777906239 | 16.67° C | 43% | 1009.4 hPa | 0 mm | - | - | - |
| 1777905935 | 16.11° C | 43% | 1009.3 hPa | 0 mm | - | - | - |
| 1777905632 | 16.11° C | 47% | 1009.3 hPa | 0 mm | - | - | - |
| 1777905329 | 15.56° C | 44% | 1009.5 hPa | 0 mm | - | - | - |
| 1777905027 | 15.56° C | 44% | 1009.4 hPa | 0 mm | - | - | - |
| 1777904724 | 15.56° C | 46% | 1009.5 hPa | 0 mm | - | - | - |
| 1777904421 | 15° C | 47% | 1009.5 hPa | 0 mm | - | - | - |
| 1777904118 | 15° C | 47% | 1009.5 hPa | 0 mm | - | - | - |
| 1777903815 | 15° C | 45% | 1009.8 hPa | 0 mm | - | - | - |
| 1777903511 | 15° C | 51% | 1009.8 hPa | 0 mm | - | - | - |
| 1777903208 | 14.44° C | 49% | 1009.7 hPa | 0 mm | - | - | - |
| 1777902904 | 14.44° C | 48% | 1009.6 hPa | 0 mm | - | - | - |
| 1777902601 | 14.44° C | 47% | 1009.8 hPa | 0 mm | - | - | - |
| 1777902298 | 13.89° C | 49% | 1009.9 hPa | 0 mm | - | - | - |
| 1777901995 | 13.89° C | 48% | 1009.8 hPa | 0 mm | - | - | - |
* Rain latest hour (hover to see other rain measurements)
** Current wind speed in m/s (hover to see current wind gust speed)